When you browse on this site, cookies collect data to enhance your experience and personalize the content and advertising you see.
Visit our Privacy Policy to learn more. By continuing to use the site, you agree to this use of cookies and data.
  • In Latvia
  • List of Countries
  • For 7 days
  • Water Temperature
  • Satellite Maps
  • Weather Map
  • Weather Widgets
  • user-avatar
    Login

    Hourly Weather Vanadzor

    Today, 23 July, Tuesday

    Time Temperature Precipitation Wind Pressure Humidity
    00:00 +18°C° 0 mm 2 mps 634 mmHg 92%
    01:00 +18°C° 0 mm 2 mps 634 mmHg 93%
    02:00 +18°C° 0 mm 2 mps 634 mmHg 94%
    03:00 +18°C° 0 mm 3 mps 634 mmHg 98%
    04:00 +19°C° 0 mm 3 mps 634 mmHg 97%
    05:00 +19°C° 0 mm 2 mps 634 mmHg 97%
    06:00 +19°C° 0 mm 2 mps 635 mmHg 97%
    07:00 +20°C° 0 mm 2 mps 635 mmHg 94%
    08:00 +20°C° 0 mm 2 mps 635 mmHg 91%
    09:00 +21°C° 0 mm 3 mps 635 mmHg 88%
    10:00 +22°C° 0.1 mm 3 mps 635 mmHg 86%
    11:00 +22°C° 0.1 mm 3 mps 634 mmHg 85%
    12:00 +24°C° 0.1 mm 3 mps 634 mmHg 83%
    13:00 +24°C° 0.2 mm 3 mps 634 mmHg 83%
    14:00 +24°C° 0.2 mm 3 mps 633 mmHg 83%
    15:00 +24°C° 0 mm 3 mps 633 mmHg 82%
    16:00 +22°C° 0.5 mm 3 mps 633 mmHg 86%
    17:00 +21°C° 0.5 mm 3 mps 633 mmHg 90%
    18:00 +20°C° 0.5 mm 3 mps 633 mmHg 94%
    19:00 +20°C° 0 mm 2 mps 633 mmHg 95%
    20:00 +19°C° 0 mm 2 mps 633 mmHg 96%
    21:00 +19°C° 0 mm 2 mps 633 mmHg 96%
    22:00 +18°C° 0 mm 2 mps 633 mmHg 96%
    23:00 +18°C° 0 mm 2 mps 633 mmHg 96%

    Tomorrow, 24 July, Wednesday

    Time Temperature Precipitation Wind Pressure Humidity
    00:00 +18°C° 0 mm 2 mps 633 mmHg 95%
    01:00 +19°C° 0 mm 1 mps 633 mmHg 95%
    02:00 +18°C° 0 mm 1 mps 633 mmHg 96%
    03:00 +18°C° 0 mm 1 mps 632 mmHg 96%
    04:00 +18°C° 0 mm 1 mps 633 mmHg 95%
    05:00 +18°C° 0 mm 1 mps 633 mmHg 95%
    06:00 +19°C° 0 mm 1 mps 633 mmHg 94%
    07:00 +20°C° 0 mm 1 mps 633 mmHg 90%
    08:00 +21°C° 0 mm 1 mps 634 mmHg 86%
    09:00 +23°C° 0 mm 2 mps 634 mmHg 81%
    10:00 +23°C° 0.1 mm 2 mps 634 mmHg 79%
    11:00 +24°C° 0.1 mm 2 mps 634 mmHg 77%
    12:00 +25°C° 0.1 mm 2 mps 634 mmHg 74%
    13:00 +25°C° 0.2 mm 2 mps 633 mmHg 72%
    14:00 +26°C° 0.2 mm 2 mps 633 mmHg 70%
    15:00 +27°C° 0.2 mm 2 mps 633 mmHg 67%
    16:00 +26°C° 0.2 mm 2 mps 633 mmHg 71%
    17:00 +25°C° 0.2 mm 2 mps 633 mmHg 75%
    18:00 +25°C° 0.2 mm 2 mps 633 mmHg 78%
    19:00 +23°C° 0.1 mm 2 mps 633 mmHg 81%
    20:00 +21°C° 0.1 mm 2 mps 633 mmHg 84%
    21:00 +20°C° 0.1 mm 1 mps 633 mmHg 86%
    22:00 +20°C° 0 mm 1 mps 633 mmHg 86%
    23:00 +19°C° 0 mm 1 mps 633 mmHg 85%

    Day after tomorrow, 25 July, Thursday

    Time Temperature Precipitation Wind Pressure Humidity
    00:00 +19°C° 0 mm 1 mps 633 mmHg 84%
    01:00 +18°C° 0 mm 1 mps 633 mmHg 83%
    02:00 +18°C° 0 mm 1 mps 633 mmHg 82%
    03:00 +18°C° 0 mm 1 mps 633 mmHg 81%
    04:00 +18°C° 0 mm 1 mps 633 mmHg 80%
    05:00 +19°C° 0 mm 1 mps 633 mmHg 79%
    06:00 +19°C° 0 mm 1 mps 634 mmHg 77%
    07:00 +21°C° 0 mm 1 mps 634 mmHg 69%
    08:00 +23°C° 0 mm 1 mps 635 mmHg 61%
    09:00 +25°C° 0 mm 1 mps 636 mmHg 52%
    10:00 +26°C° 0.1 mm 1 mps 636 mmHg 48%
    11:00 +27°C° 0.1 mm 2 mps 636 mmHg 43%
    12:00 +28°C° 0.1 mm 2 mps 636 mmHg 39%
    13:00 +28°C° 0.1 mm 2 mps 636 mmHg 40%
    14:00 +28°C° 0.1 mm 2 mps 635 mmHg 41%
    15:00 +29°C° 0.1 mm 2 mps 635 mmHg 42%
    16:00 +27°C° 0.3 mm 2 mps 635 mmHg 53%
    17:00 +25°C° 0.3 mm 2 mps 634 mmHg 65%
    18:00 +24°C° 0.3 mm 2 mps 634 mmHg 76%
    19:00 +21°C° 0.1 mm 2 mps 634 mmHg 81%
    20:00 +19°C° 0.1 mm 2 mps 633 mmHg 86%
    21:00 +18°C° 0.1 mm 1 mps 633 mmHg 91%
    22:00 +16°C° 0.1 mm 1 mps 633 mmHg 91%
    23:00 +16°C° 0.1 mm 1 mps 634 mmHg 92%

    26 July, Friday

    Time Temperature Precipitation Wind Pressure Humidity
    00:00 +15°C° 0.1 mm 0 mps 634 mmHg 92%
    01:00 +14°C° 0 mm 0 mps 634 mmHg 91%
    02:00 +15°C° 0 mm 1 mps 634 mmHg 91%
    03:00 +15°C° 0 mm 1 mps 634 mmHg 90%
    04:00 +14°C° 0 mm 0 mps 634 mmHg 89%
    05:00 +15°C° 0 mm 0 mps 634 mmHg 87%
    06:00 +15°C° 0 mm 0 mps 635 mmHg 85%
    07:00 +19°C° 0 mm 1 mps 635 mmHg 80%
    08:00 +21°C° 0 mm 1 mps 636 mmHg 75%
    09:00 +22°C° 0 mm 1 mps 636 mmHg 70%
    10:00 +23°C° 0.2 mm 2 mps 636 mmHg 67%
    11:00 +24°C° 0.2 mm 2 mps 636 mmHg 64%
    12:00 +25°C° 0.2 mm 2 mps 636 mmHg 61%
    13:00 +25°C° 0.5 mm 2 mps 636 mmHg 61%
    14:00 +25°C° 0.5 mm 2 mps 635 mmHg 61%
    15:00 +25°C° 0.5 mm 2 mps 635 mmHg 61%
    16:00 +25°C° 0.2 mm 2 mps 635 mmHg 65%
    17:00 +24°C° 0.2 mm 2 mps 634 mmHg 69%
    18:00 +23°C° 0.2 mm 2 mps 634 mmHg 74%
    19:00 +20°C° 0 mm 2 mps 634 mmHg 78%
    20:00 +19°C° 0 mm 2 mps 634 mmHg 82%
    21:00 +18°C° 0 mm 1 mps 634 mmHg 86%
    22:00 +16°C° 0 mm 1 mps 634 mmHg 85%
    23:00 +16°C° 0 mm 1 mps 634 mmHg 85%

    27 July, Saturday

    Time Temperature Precipitation Wind Pressure Humidity
    00:00 +15°C° 0 mm 1 mps 634 mmHg 84%
    01:00 +15°C° 0 mm 1 mps 633 mmHg 85%
    02:00 +15°C° 0 mm 1 mps 633 mmHg 86%
    03:00 +14°C° 0 mm 1 mps 633 mmHg 87%
    04:00 +14°C° 0 mm 1 mps 633 mmHg 88%
    05:00 +15°C° 0 mm 1 mps 633 mmHg 89%
    06:00 +15°C° 0 mm 1 mps 633 mmHg 89%
    07:00 +16°C° 0 mm 1 mps 633 mmHg 85%
    08:00 +19°C° 0 mm 1 mps 633 mmHg 81%
    09:00 +20°C° 0 mm 2 mps 633 mmHg 77%
    10:00 +20°C° 0.1 mm 2 mps 633 mmHg 77%
    11:00 +21°C° 0.1 mm 2 mps 633 mmHg 76%
    12:00 +23°C° 0.1 mm 2 mps 633 mmHg 76%
    13:00 +23°C° 0.1 mm 2 mps 633 mmHg 76%
    14:00 +23°C° 0.1 mm 2 mps 632 mmHg 76%
    15:00 +23°C° 0.1 mm 2 mps 632 mmHg 77%
    16:00 +21°C° 0.1 mm 2 mps 631 mmHg 79%
    17:00 +21°C° 0.1 mm 2 mps 631 mmHg 81%
    18:00 +20°C° 0.1 mm 2 mps 631 mmHg 84%
    19:00 +19°C° 0 mm 2 mps 631 mmHg 86%
    20:00 +18°C° 0 mm 2 mps 631 mmHg 88%
    21:00 +19°C° 0 mm 1 mps 631 mmHg 90%
    22:00 +18°C° 0.2 mm 1 mps 631 mmHg 91%
    23:00 +18°C° 0.2 mm 1 mps 631 mmHg 92%

    28 July, Sunday

    Time Temperature Precipitation Wind Pressure Humidity
    00:00 +16°C° 0.2 mm 1 mps 631 mmHg 93%
    01:00 +16°C° 0.3 mm 1 mps 631 mmHg 93%
    02:00 +16°C° 0.3 mm 1 mps 631 mmHg 93%
    03:00 +16°C° 0.3 mm 1 mps 630 mmHg 94%
    04:00 +16°C° 0 mm 1 mps 631 mmHg 94%
    05:00 +16°C° 0 mm 1 mps 631 mmHg 94%
    06:00 +18°C° 0 mm 1 mps 631 mmHg 94%
    07:00 +19°C° 0 mm 1 mps 631 mmHg 90%
    08:00 +20°C° 0 mm 1 mps 631 mmHg 85%
    09:00 +21°C° 0 mm 1 mps 632 mmHg 81%
    10:00 +21°C° 0.1 mm 2 mps 632 mmHg 78%
    11:00 +23°C° 0.1 mm 2 mps 632 mmHg 76%
    12:00 +24°C° 0.1 mm 2 mps 632 mmHg 73%
    13:00 +24°C° 0.3 mm 2 mps 631 mmHg 71%
    14:00 +25°C° 0.3 mm 2 mps 631 mmHg 70%
    15:00 +25°C° 0.3 mm 2 mps 631 mmHg 68%
    16:00 +25°C° 0.2 mm 2 mps 631 mmHg 71%
    17:00 +24°C° 0.2 mm 2 mps 631 mmHg 74%
    18:00 +24°C° 0.2 mm 2 mps 631 mmHg 77%
    19:00 +22°C° 0 mm 1 mps 631 mmHg 81%
    20:00 +20°C° 0 mm 1 mps 631 mmHg 84%
    21:00 +18°C° 0 mm 1 mps 631 mmHg 88%
    22:00 +18°C° 0.1 mm 1 mps 631 mmHg 88%
    23:00 +18°C° 0.1 mm 1 mps 631 mmHg 89%
    Show more